Theta_e
300 302 305 303 300 298 297 296 295 295 296 296 296 296 297 297 300 303 306 310 309 306 309 318 319 319 319 321 324 318 318 320 321 321 323 321 323 323 325 329 335 336 333 335 337
297 297 297 298 298 299 298 298 297 297 297 297 297 296 296 296 301 306 308 309 310 308 306 308 316 318 319 323 323 316 317 319 318 319 321 318 320 320 324 329 332 333 335 335 337
297 297 298 297 297 298 298 299 299 298 297 297 297 296 296 296 300 308 308 309 311 310 308 307 309 314 317 324 322 314 318 318 320 319 318 317 318 319 323 324 329 331 334 335 337
298 298 298 298 296 295 296 297 299 298 298 297 296 296 296 296 297 307 308 308 310 311 312 310 310 313 317 322 325 317 315 319 320 319 317 318 319 318 322 324 323 325 331 333 336
298 298 298 297 296 295 296 297 297 297 297 297 295 295 295 296 296 299 303 300 306 309 312 313 312 312 315 318 322 321 319 318 320 320 318 318 319 318 319 321 323 326 329 333 335
298 298 298 297 295 294 296 297 297 298 298 297 295 294 295 294 296 296 297 296 296 305 309 312 311 311 312 311 318 320 323 321 319 320 320 319 318 318 320 321 322 327 327 333 334
297 297 297 297 295 294 294 295 296 297 297 295 294 295 296 295 296 296 297 297 297 296 303 308 309 311 311 309 310 316 322 322 323 321 320 320 318 316 321 320 320 328 331 334 334
298 298 298 297 294 294 294 295 296 297 295 294 295 296 296 295 298 299 299 298 299 298 298 302 308 309 311 312 312 317 319 322 319 322 322 319 325 317 321 320 319 322 330 333 334
297 296 295 294 294 294 295 296 297 295 294 295 296 297 297 297 299 299 299 297 296 297 298 298 304 308 311 310 312 316 316 318 319 321 322 319 323 320 322 318 319 320 324 330 334
294 294 294 294 294 297 298 297 294 293 295 297 297 297 298 298 296 296 298 297 297 297 297 301 305 308 308 308 310 314 317 315 318 318 320 320 322 319 321 317 318 320 320 324 330
295 294 295 297 298 298 298 296 293 294 294 294 294 295 294 296 298 298 298 298 298 297 300 302 305 306 308 309 309 309 309 309 313 316 321 321 320 321 321 317 314 317 318 319 321
299 298 298 298 298 298 296 291 295 295 295 295 296 297 299 299 298 297 299 298 298 298 301 300 300 302 305 307 310 310 310 309 309 315 318 319 319 319 320 321 319 319 318 321 323
301 300 298 299 298 297 295 292 295 296 296 295 297 298 300 299 299 298 299 299 297 297 300 298 297 300 302 305 308 311 311 310 309 307 310 317 318 318 318 321 320 321 320 322 321
301 302 299 299 298 296 294 292 295 296 283 291 298 299 299 298 297 298 299 299 298 297 295 296 297 299 299 303 306 308 309 310 310 309 312 315 316 316 318 319 319 319 318 319 320
302 302 300 298 298 296 295 293 296 296 285 292 295 298 296 297 297 298 300 299 299 298 298 295 301 302 301 300 303 306 308 309 309 310 310 310 318 313 316 319 318 320 321 320 320
302 301 300 298 298 297 294 293 296 286 285 288 294 295 296 296 297 298 299 299 299 298 298 298 300 302 303 302 303 304 306 309 309 309 312 311 314 311 315 316 317 317 320 322 323
302 301 299 298 298 296 293 294 286 286 287 289 290 294 295 296 297 297 298 296 298 296 290 295 298 298 301 302 302 304 304 310 311 311 309 307 311 313 311 312 315 316 319 320 321
301 299 298 298 297 296 293 287 284 279 281 292 295 295 292 293 296 295 296 294 294 296 296 294 295 297 299 300 302 305 303 308 310 309 308 308 312 310 310 312 310 309 316 319 319
300 298 298 296 295 293 293 282 285 283 292 295 294 288 283 290 292 293 291 291 295 299 300 295 296 299 299 300 300 301 305 304 307 304 305 305 307 306 306 307 308 309 309 312 316
298 297 296 295 294 294 287 289 284 291 295 296 294 291 284 282 289 288 287 289 295 298 299 299 299 298 300 301 301 301 303 307 308 309 307 307 307 306 307 308 308 308 308 307 308
298 296 296 295 294 294 283 281 284 292 294 296 294 292 289 288 286 282 285 289 297 297 298 299 301 300 299 298 302 302 302 304 306 306 309 307 307 304 305 305 307 306 307 307 307
297 291 296 295 292 286 281 281 292 293 294 294 295 296 295 292 285 288 286 291 298 298 296 298 299 300 296 298 303 304 303 302 303 307 307 306 306 301 302 301 306 305 306 306 307
296 295 295 294 283 279 287 288 292 293 294 292 293 295 294 295 292 291 292 296 297 296 292 293 293 295 294 301 303 304 303 303 304 304 306 309 304 302 303 302 304 302 302 304 306
296 286 294 294 291 285 285 281 287 293 294 294 293 293 294 295 295 289 294 295 295 295 297 296 296 298 295 293 298 301 300 303 305 307 305 306 307 304 302 302 301 301 301 301 302
295 292 290 282 284 285 287 288 291 291 293 294 294 293 291 288 292 293 294 294 294 295 295 292 293 290 295 296 296 299 301 302 303 303 304 305 306 305 302 301 301 301 301 300 300
296 292 289 285 287 288 288 285 291 291 291 289 292 294 292 290 292 293 293 294 294 294 294 293 291 293 292 297 300 302 299 300 301 302 301 300 301 302 300 301 299 299 299 299 299
296 296 294 288 286 285 281 286 290 292 292 293 293 293 293 293 293 294 294 293 294 294 295 294 295 292 295 295 296 295 298 296 297 299 300 300 303 301 300 300 299 298 299 299 298
Wind_Speed
15 15 15 15 18 18 17 18 18 18 16 16 17 18 17 17 14 5 6 8 9 11 11 11 10 8 5 5 9 5 3 4 6 6 5 1 5 4 4 5 8 9 3 4 20
15 15 16 17 17 17 18 18 18 19 19 18 16 16 16 15 10 8 6 7 9 11 9 9 9 6 2 4 7 6 4 8 7 6 4 1 1 5 3 2 5 7 7 7 23
14 15 15 15 16 16 17 17 18 19 19 19 18 15 14 14 6 2 4 7 10 12 8 7 6 5 4 5 6 7 6 4 6 7 6 3 3 1 1 3 5 7 13 15 26
12 13 15 16 16 16 17 17 17 18 19 19 19 18 15 8 2 3 6 8 10 11 10 4 2 2 3 4 8 4 10 8 5 9 4 3 2 3 4 4 5 9 14 20 27
12 13 15 16 16 15 16 15 16 18 20 19 20 19 16 9 2 7 9 10 11 9 10 7 3 3 3 3 3 3 4 14 10 12 11 5 7 4 9 6 8 7 15 22 26
12 12 14 17 18 17 16 14 16 18 20 19 18 18 14 5 4 8 10 13 11 9 6 5 7 5 5 5 3 6 12 5 13 16 8 6 5 5 3 6 8 7 16 23 26
13 13 13 15 18 18 18 18 18 17 19 18 17 16 14 3 6 8 10 12 10 9 7 4 6 5 8 6 9 5 5 5 8 9 5 8 7 7 19 8 6 7 16 23 27
12 13 16 19 19 19 20 18 18 18 16 14 16 15 6 5 6 6 7 6 7 9 10 8 1 5 3 10 6 4 2 5 4 9 5 10 18 10 24 19 16 13 14 21 27
12 13 15 17 20 22 22 20 17 14 12 12 12 10 4 4 6 8 11 14 14 8 10 9 6 3 2 1 4 4 3 6 5 12 7 9 3 11 21 22 20 18 19 19 26
11 11 14 16 18 19 19 17 11 10 9 8 5 6 3 8 16 16 11 9 10 13 7 2 2 2 1 3 6 3 5 4 6 5 7 7 13 8 16 24 24 23 21 24 24
12 12 12 13 16 18 18 14 14 3 17 7 14 10 16 13 7 9 10 9 5 3 2 5 0 6 6 8 6 7 6 8 5 5 4 16 14 17 16 20 16 28 24 21 22
12 12 13 14 15 15 16 12 9 7 10 9 7 6 6 9 8 12 9 5 5 2 3 4 4 7 6 9 9 14 16 9 9 6 4 4 13 15 15 20 27 30 33 31 31
11 11 12 14 14 12 14 14 10 8 4 7 5 5 5 8 6 5 5 2 1 0 2 5 5 13 4 8 12 11 14 11 7 9 6 3 9 10 10 21 24 37 34 38 35
11 11 12 12 8 12 9 12 10 11 5 5 4 3 4 9 3 11 4 1 2 2 2 5 10 9 10 8 4 12 4 10 12 5 4 1 9 17 19 16 18 26 32 30 30
10 10 10 9 9 8 9 10 8 5 4 7 7 6 13 2 8 2 1 1 4 4 4 7 3 3 8 8 7 8 5 6 11 15 6 6 6 6 9 21 24 21 30 39 35
9 8 8 6 7 7 8 8 6 6 4 7 6 7 8 3 2 5 3 3 4 1 4 10 2 3 2 2 4 6 6 10 3 8 10 18 9 6 8 18 12 18 33 41 45
8 5 5 5 6 7 6 6 5 5 4 8 3 5 4 4 5 2 3 2 2 2 3 4 8 7 7 5 6 7 6 4 6 7 12 16 7 22 4 4 5 14 26 39 44
6 4 3 4 6 5 5 5 6 3 5 4 4 4 2 5 3 5 4 3 3 1 1 2 7 9 8 17 5 9 7 6 8 7 16 5 11 12 6 11 5 4 12 18 30
6 4 3 2 2 4 3 4 7 6 3 4 6 5 6 4 2 5 1 3 3 2 4 3 7 3 4 5 14 5 9 15 9 3 2 6 25 8 1 2 1 4 3 14 21
7 4 2 1 1 3 3 4 4 4 1 2 0 1 2 5 5 5 1 4 3 4 2 4 5 5 3 6 11 11 3 6 5 6 5 5 17 15 5 5 3 3 4 11 20
6 1 4 2 2 0 2 6 5 6 5 4 3 3 5 3 3 3 4 6 2 4 6 6 5 3 3 5 8 7 11 8 4 7 5 2 5 4 11 7 9 7 10 17 22
4 1 5 3 0 3 1 4 3 3 5 6 3 4 4 3 3 3 5 6 0 4 6 2 4 4 9 5 3 8 6 9 8 6 9 6 9 2 6 5 8 10 16 19 25
3 3 5 4 1 2 2 4 5 3 5 4 4 6 3 3 2 5 4 5 5 2 2 4 4 4 9 1 2 4 6 12 13 11 19 6 8 7 1 7 13 16 19 23 26
2 1 3 5 2 5 2 4 4 5 5 5 5 2 2 4 6 5 3 4 4 4 7 2 4 5 7 7 2 4 5 2 7 11 17 12 7 6 7 9 13 19 22 25 29
4 2 4 2 3 2 2 2 2 3 5 6 3 7 6 3 3 5 5 3 6 4 3 4 5 4 10 14 14 15 14 7 7 9 5 3 19 13 5 7 11 28 30 28 27
3 4 3 3 4 3 4 4 6 4 5 5 5 4 7 7 9 10 10 5 5 2 2 2 4 2 8 9 12 12 10 12 13 12 10 11 12 5 9 8 11 22 30 31 30
8 7 3 6 4 3 5 6 5 4 8 11 10 3 7 16 23 25 25 20 13 4 7 3 3 3 5 7 7 7 13 10 4 6 6 8 15 11 6 13 20 26 32 33 31
Wind_Direction
18 16 19 7 6 5 1 357 355 356 358 1 358 349 350 355 2 14 30 353 318 270 249 237 244 238 228 213 194 174 89 206 208 158 245 314 39 20 308 176 171 195 214 212 177
13 11 8 5 1 358 358 354 351 348 349 351 353 350 347 349 351 16 30 346 328 321 274 256 239 242 211 222 188 160 167 215 206 195 210 228 144 352 3 234 212 208 214 203 178
12 9 7 3 356 353 352 350 348 346 344 344 344 347 348 343 359 14 7 353 343 340 313 274 249 242 230 213 195 174 194 221 232 211 190 188 260 18 114 231 246 220 209 187 182
8 9 5 1 356 351 345 342 343 342 339 339 339 341 348 356 27 263 325 330 330 349 340 305 238 204 234 221 218 188 218 197 226 215 200 209 231 292 179 208 303 261 225 193 192
4 359 355 356 353 350 347 341 338 336 335 335 333 336 348 347 358 304 307 313 293 326 358 358 38 351 220 259 264 219 230 212 207 217 220 229 243 236 260 264 288 238 218 202 202
353 343 345 347 349 346 346 341 335 331 331 327 328 330 340 346 313 315 312 308 314 304 344 357 25 350 291 286 231 324 249 226 218 216 213 195 234 198 248 228 253 238 219 209 208
341 342 340 342 344 343 340 336 330 328 324 323 324 331 326 356 336 323 319 330 332 313 299 283 324 359 345 301 327 284 279 245 217 194 219 197 254 210 229 230 241 244 215 214 213
350 347 342 337 339 337 336 336 330 327 323 320 323 328 308 316 344 357 4 342 345 323 304 284 322 293 237 317 307 225 224 238 201 172 229 176 253 218 228 226 235 228 222 224 221
338 338 337 336 336 333 336 338 333 324 320 315 317 326 328 19 9 340 343 337 338 326 324 287 292 255 194 102 299 241 243 229 323 207 185 195 262 225 229 211 217 220 222 224 226
332 334 334 336 334 339 342 342 336 329 350 338 347 329 40 336 322 325 350 331 324 330 351 25 227 247 179 154 219 249 238 277 229 206 212 228 240 268 227 205 210 212 218 224 225
351 351 351 350 343 343 346 6 4 346 337 298 296 283 299 329 341 359 351 339 347 331 16 2 9 223 260 227 252 279 306 317 335 272 239 230 232 239 234 228 220 203 208 214 225
352 354 352 348 347 349 352 34 26 325 316 345 330 316 1 0 330 3 15 19 35 349 352 7 270 242 284 290 237 248 260 281 285 252 242 265 249 242 226 229 227 227 225 228 238
324 332 335 342 344 352 5 14 3 349 287 316 340 346 353 345 333 337 359 12 59 169 225 205 252 349 300 270 260 249 248 249 261 332 268 358 265 239 237 231 233 236 237 235 228
308 312 323 335 342 349 3 357 351 342 59 304 358 6 342 321 299 322 333 302 36 306 260 245 262 244 261 265 279 264 257 235 232 269 251 166 269 220 224 229 222 221 228 226 215
298 299 314 330 333 343 344 344 346 342 24 306 315 335 335 340 317 345 360 183 212 221 118 246 274 253 244 239 218 258 277 295 218 228 329 256 263 245 188 228 225 215 218 227 219
284 289 305 320 326 334 336 338 346 41 278 330 323 347 359 344 270 297 308 272 284 250 221 246 257 254 231 307 267 251 317 278 290 228 239 228 221 211 199 226 219 210 214 220 226
268 267 284 305 318 326 333 338 33 106 326 303 319 351 340 300 318 351 313 308 230 357 310 310 235 220 189 256 248 200 172 208 225 196 228 192 210 242 277 287 227 215 208 218 224
245 236 261 293 307 321 329 51 70 241 237 315 314 321 318 356 329 337 302 308 306 174 255 217 314 170 192 206 198 205 194 239 191 202 245 91 225 235 253 212 241 232 218 219 219
208 208 244 310 324 320 302 55 202 203 220 321 330 34 318 339 357 0 256 236 256 239 241 204 265 264 223 172 191 195 232 248 278 279 314 184 238 310 118 28 11 344 224 203 199
187 196 240 210 316 316 68 243 202 216 257 103 216 136 252 283 6 31 323 230 264 213 265 275 284 238 216 184 216 224 238 217 207 230 240 227 230 230 183 199 235 234 163 177 180
175 199 207 264 313 296 162 230 248 242 217 175 216 272 231 276 188 271 251 288 241 317 293 275 261 289 16 210 185 208 241 247 313 217 243 281 250 245 202 210 207 182 167 166 169
172 75 206 248 357 84 191 207 277 258 197 240 219 227 223 201 267 253 231 219 323 323 315 289 293 263 235 254 235 219 236 228 230 253 238 238 258 15 281 295 139 129 147 155 166
190 176 202 212 142 258 283 281 258 235 212 184 229 208 169 238 286 217 248 261 277 349 235 314 299 324 330 49 183 222 214 234 243 248 252 249 255 355 143 114 132 127 141 154 153
203 45 183 201 198 141 173 263 289 243 252 208 228 175 182 236 213 269 259 296 303 256 250 333 257 221 233 232 213 255 239 269 262 231 250 225 291 306 289 153 136 136 145 145 147
203 208 187 241 256 125 147 187 255 282 228 226 267 207 177 230 262 231 243 261 282 301 311 145 261 226 263 258 256 264 259 243 239 263 249 251 221 257 196 279 162 148 148 145 141
216 172 161 153 154 165 209 242 210 265 185 256 221 216 185 202 202 270 284 267 238 237 340 291 276 290 287 262 221 254 246 236 238 237 249 262 281 148 146 160 158 147 147 148 149
217 222 223 166 162 146 219 219 214 183 254 245 222 225 225 237 249 262 268 251 245 218 280 235 277 333 264 337 334 287 244 209 210 204 190 214 224 161 151 165 179 162 159 159 158